Weather in Kuimikha

Russia / Arkhangel'skaya Oblast'     61°10′42″N   46°32′35″E
temp.,
°C
wind,
m/s
gust,
m/s
humid.,
%
clouds,
%
prec.,
mm/h
press.,
hPa
HPBL,
m
24 may, tue
tue2400:000n1298100 0.1 999260
03:000sse1199100 0.3 1000143
06:00+1se119691 0.3 1002181
09:00+3ne238592 0.7 1003672
12:00+6ene3468100 0.3 10051267
15:00+6ne3581100 1.4 1006824
18:00+6ne238196 0.8 1007754
21:00+3ne2397100 2.6 1008242
25 may, wed
wed2500:00+3nne2398100 1.3 1009276
03:00+3nne139699 1.3 100986
06:00+4nne2490100 0.0 1009193
09:00+5nne3485100 0.1 1008846
12:00+3ne2498100 1.1 1009445
15:00+4e139598 1.4 1009691
18:00+6s128241 0.1 1008499
21:00+2wsw119555 0.1 100810
26 may, thu
thu2600:00+1wsw119622 0.0 100710
03:00+1w119643 0.0 100610
06:00+5wnw248765 0.0 1004269
09:00+9wnw347083 0.0 10031021
12:00+11w4559100 0.0 10021483
15:00+10wsw5869100 0.1 10021010
18:00+9wsw5971100 0.0 1002765
21:00+7sw41076100 0.0 1003504
27 may, fri
fri2700:00+6ssw3989100 0.0 1004371
03:00+3s3994100 0.0 1004281
06:00+6s377898 0.0 1004374
09:00+10s465528 0.0 10031332
12:00+14s464461 0.0 10032008
15:00+14se465076 0.0 10021385
18:00+13ese386160 0.0 1002793
21:00+10ese31075100 0.0 1002494
28 may, sat
sat2800:00+9ese3981100 0.0 1001343
03:00+8e3988100 0.3 1000388
06:00+8e3996100 1.3 999386
09:00+9ese3898100 4.9 998482
12:00+10se249642 1.9 998292
15:00+14sse3478100 3.1 997835
18:00+10s4995100 3.7 997474
21:00+8s2698100 6.4 996262